NOAA 16 DEB, 41534

Orbit data source: Space-Track

NOAA 16 DEB, 41534 is space debris in SSO originally from a launch on Thu, 21 Sep 2000 UTC launched from the Air Force Western Test Range (AFWTR). Debris objects in space refer to the collection of defunct objects orbiting the Earth. Examples of debris include non-operational satellites, rocket bodies, and fragments generated from explosions, collisions, or faulty payload assembly.

Loading next visibility...
Identifier
41534, 2000-055NJ
Orbit
SSO
Country
Flag of USUS
Related business
Manufacturer
Unknown
Mission
Spacecraft
Bus & Motor
Unknown
Mass
Unknown
Launch date (UTC)
2000-09-21 (26 years ago)
Launch vehicle
Unknown
Launch site
Air Force Western Test Range (AFWTR)
Object type
Payload
Rocket body
Debris
Shape & HBR
Unknown shape, 0.1 m
Radar Cross Section
Medium (>0.1 m² and <1 m²)

Expand to show TLE details & history
Last TLE update: 3 days ago

TLE from 3 days ago
0 NOAA 16 DEB
1 41534U 00055NJ  26169.96616696  .00005171  00000-0  18260-2 0  9993
2 41534  98.8118 258.7893 0021062 169.0627 191.1019 14.34998627523609
Epoch: 2026-06-18T23:11Z
TLE epoch observation values (Epoch: 2026-06-18T23:11:16.825Z)
Latitude
-0.00007°
Longitude
3.76729°
Altitude
792.791 km
Speed
7.45 km/s
True Right ascension
17h 15m 09s
True Declination
0° 00' 00"
Sunlit
Object was in full shadow at epoch
Visualization orbit readout
Latitude
Unknown
Longitude
Unknown
Altitude
Unknown
Speed
Unknown
Apparent Right ascension
Unknown
Apparent Declination
Unknown
Sunlit
N/A
Visualization observer readout
Local Sidereal Time
21:34:55
Azimuth
Unknown
Elevation
Unknown
Doppler factor
Unknown
Orbital elements
Apogee altitude
787.275 km
Perigee altitude
757.154 km
Semi-major axis
7,150.351 km
Eccentricity
0.00211
Inclination
98.8118°
RAAN
258.7893°
Arg. of periapsis
169.0627°
True anomaly
191.05555°
Mean anomaly
191.1019°
Eccentric anomaly
191.07871°
Mean motion
3.58965 °/min
Orbital period
100.29 mins
BSTAR
0.001826
Loading maneuver chart data...
Computing Atmospheric mass density...
Loading historical data...
Loading historical data...
Loading historical data...
Loading historical data...
Loading historical data...
Loading historical data...
Loading historical data...

Documentation

Showing up to 5 results
|